Tracking 30703 objects as of 13-Jun-2025
HD Live streaming from Space Station
objects crossing your sky now

IUE

Track IUE now!
IUE is classified as:


NORAD ID: 10637
Int'l Code: 1978-012A
Perigee: 29,516.6 km
Apogee: 42,192.5 km
Inclination: 37.6 °
Period: 1,439.2 minutes
Semi major axis: 42225 km
RCS: 5.9851 m2 (large)
Launch date: January 26, 1978
Source: United States (US)
Launch site: AIR FORCE EASTERN TEST RANGE (AFETR)

The International Ultraviolet Explorer (IUE, formerly SAS-D) satellite was a spaceborne ultraviolet astronomical observatory for use as an international facility. IUE was shut down at 18:42 UT, 30 September 1996.
Your satellite tracking list
Your tracking list is empty




NASA's NSSDC Master Catalog

Two Line Element Set (TLE):
1 10637U 78012A   25163.81478265 -.00000047  00000-0  00000-0 0  9995
2 10637  37.5636 293.9698 1500975 259.9725  71.1528  1.00055233125372
Source of the keplerian elements: AFSPC